VOZ1538 YSSY-YMHB

Flight info

Callsign VOZ1538
Flight time 1h 34m
Altitude 38000
Route WOL H20 MOTRA/N0365F200 W407 IPLET
Aircraft B737/M-SDE2E3FGHIRWXY/LB1

Departure

Time 2026-05-09 07:27
Airport Sydney Kingsford Smith International Airport (YSSY)

Arrival

Time 2026-05-09 09:02
Airport Hobart International Airport (YMHB)
Time Latitude Longitude Altitude Speed Heading
2026-05-09 06:56 -33.93701 151.17869 29 ft 0 kts 78°
2026-05-09 07:15 -33.93703 151.17859 29 ft 4 kts 78°
2026-05-09 07:15 -33.93708 151.17827 29 ft 4 kts 87°
2026-05-09 07:16 -33.93705 151.17800 29 ft 4 kts 146°
2026-05-09 07:16 -33.93700 151.17797 29 ft 0 kts 194°
2026-05-09 07:22 -33.93722 151.17790 29 ft 7 kts 195°
2026-05-09 07:22 -33.93730 151.17733 29 ft 10 kts 302°
2026-05-09 07:22 -33.93680 151.17659 29 ft 12 kts 314°
2026-05-09 07:22 -33.93639 151.17577 28 ft 12 kts 291°
2026-05-09 07:23 -33.93577 151.17527 28 ft 11 kts 349°
2026-05-09 07:23 -33.93500 151.17507 28 ft 12 kts 347°
2026-05-09 07:23 -33.93414 151.17507 29 ft 13 kts
2026-05-09 07:23 -33.93320 151.17488 29 ft 15 kts 348°
2026-05-09 07:24 -33.93216 151.17461 29 ft 16 kts 347°
2026-05-09 07:24 -33.93103 151.17431 29 ft 17 kts 348°
2026-05-09 07:24 -33.92993 151.17397 29 ft 16 kts 329°
2026-05-09 07:24 -33.92960 151.17311 30 ft 2 kts 281°
2026-05-09 07:26 -33.92956 151.17259 30 ft 16 kts 263°
2026-05-09 07:26 -33.93093 151.17201 30 ft 37 kts 168°
2026-05-09 07:27 -33.93619 151.17337 30 ft 116 kts 167°
2026-05-09 07:27 -33.94571 151.17573 366 ft 148 kts 167°
2026-05-09 07:27 -33.95618 151.17769 1184 ft 157 kts 174°
2026-05-09 07:27 -33.96699 151.18106 1969 ft 165 kts 158°
2026-05-09 07:28 -33.97851 151.18216 2660 ft 180 kts 191°
2026-05-09 07:28 -33.99228 151.17971 2983 ft 219 kts 189°
2026-05-09 07:28 -34.00871 151.17741 3393 ft 253 kts 188°
2026-05-09 07:28 -34.02663 151.17565 4360 ft 260 kts 180°
2026-05-09 07:29 -34.04448 151.18003 5553 ft 263 kts 166°
2026-05-09 07:29 -34.06201 151.18622 6778 ft 261 kts 165°
2026-05-09 07:29 -34.07970 151.19234 7769 ft 268 kts 166°
2026-05-09 07:29 -34.09779 151.19847 8786 ft 272 kts 166°
2026-05-09 07:30 -34.11589 151.20459 9795 ft 276 kts 166°
2026-05-09 07:30 -34.13466 151.21087 10595 ft 288 kts 166°
2026-05-09 07:30 -34.15459 151.21751 11186 ft 303 kts 166°
2026-05-09 07:30 -34.17523 151.22388 12030 ft 310 kts 173°
2026-05-09 07:31 -34.19667 151.22219 12989 ft 311 kts 197°
2026-05-09 07:31 -34.21621 151.21070 13940 ft 318 kts 217°
2026-05-09 07:31 -34.23205 151.19150 14743 ft 326 kts 229°
2026-05-09 07:31 -34.24674 151.17052 15701 ft 328 kts 229°
2026-05-09 07:32 -34.26145 151.14929 16616 ft 332 kts 229°
2026-05-09 07:32 -34.27640 151.12785 17567 ft 335 kts 229°
2026-05-09 07:32 -34.29158 151.10629 18483 ft 339 kts 229°
2026-05-09 07:32 -34.30701 151.08450 19293 ft 342 kts 229°
2026-05-09 07:33 -34.32265 151.06247 20089 ft 346 kts 229°
2026-05-09 07:33 -34.35424 151.01792 21644 ft 355 kts 230°
2026-05-09 07:33 -34.37041 150.99508 22428 ft 359 kts 229°
2026-05-09 07:34 -34.38811 150.97298 22821 ft 375 kts 223°
2026-05-09 07:34 -34.40796 150.95155 23176 ft 388 kts 221°
2026-05-09 07:34 -34.42861 150.93006 23805 ft 394 kts 221°
2026-05-09 07:34 -34.44944 150.90826 24436 ft 396 kts 221°
2026-05-09 07:35 -34.47025 150.88614 25042 ft 399 kts 222°
2026-05-09 07:35 -34.49107 150.86373 25611 ft 403 kts 222°
2026-05-09 07:35 -34.51201 150.84101 26192 ft 405 kts 222°
2026-05-09 07:35 -34.53313 150.81801 26748 ft 409 kts 222°
2026-05-09 07:36 -34.55441 150.79494 27257 ft 413 kts 220°
2026-05-09 07:36 -34.57821 150.77510 27735 ft 417 kts 210°
2026-05-09 07:36 -34.60378 150.75807 28263 ft 420 kts 208°
2026-05-09 07:36 -34.62946 150.74179 28754 ft 424 kts 207°
2026-05-09 07:37 -34.65611 150.72495 29190 ft 429 kts 208°
2026-05-09 07:37 -34.68233 150.70814 29643 ft 432 kts 208°
2026-05-09 07:37 -34.70892 150.69083 30127 ft 435 kts 208°
2026-05-09 07:37 -34.73560 150.67327 30544 ft 438 kts 208°
2026-05-09 07:38 -34.76244 150.65548 30905 ft 441 kts 208°
2026-05-09 07:38 -34.78937 150.63757 31272 ft 443 kts 208°
2026-05-09 07:38 -34.81628 150.61966 31689 ft 444 kts 208°
2026-05-09 07:38 -34.84353 150.60153 32215 ft 442 kts 208°
2026-05-09 07:39 -34.87042 150.58365 32744 ft 440 kts 209°
2026-05-09 07:39 -34.89720 150.56582 33300 ft 436 kts 209°
2026-05-09 07:39 -34.92381 150.54807 33782 ft 435 kts 209°
2026-05-09 07:39 -34.95061 150.53172 34154 ft 436 kts 203°
2026-05-09 07:40 -34.97947 150.52011 34495 ft 437 kts 195°
2026-05-09 07:40 -35.00892 150.51123 34885 ft 435 kts 194°
2026-05-09 07:40 -35.03839 150.50275 35263 ft 434 kts 194°
2026-05-09 07:40 -35.06783 150.49435 35591 ft 435 kts 194°
2026-05-09 07:41 -35.09722 150.48591 35956 ft 433 kts 194°
2026-05-09 07:41 -35.12652 150.47740 36349 ft 431 kts 194°
2026-05-09 07:41 -35.15565 150.46885 36675 ft 431 kts 195°
2026-05-09 07:41 -35.18489 150.46019 36950 ft 431 kts 195°
2026-05-09 07:42 -35.21407 150.45151 37221 ft 432 kts 195°
2026-05-09 07:42 -35.24326 150.44280 37510 ft 432 kts 195°
2026-05-09 07:42 -35.27244 150.43408 37852 ft 431 kts 195°
2026-05-09 07:42 -35.30151 150.42538 38261 ft 428 kts 195°
2026-05-09 07:43 -35.33064 150.41665 38279 ft 433 kts 195°
2026-05-09 07:43 -35.38925 150.39908 38303 ft 433 kts 195°
2026-05-09 07:44 -35.44688 150.38180 38298 ft 426 kts 195°
2026-05-09 07:44 -35.50438 150.36453 38322 ft 425 kts 195°
2026-05-09 07:45 -35.56174 150.34726 38306 ft 424 kts 195°
2026-05-09 07:45 -35.61891 150.33003 38307 ft 422 kts 195°
2026-05-09 07:46 -35.67602 150.31279 38309 ft 422 kts 195°
2026-05-09 07:46 -35.73296 150.29558 38314 ft 421 kts 195°
2026-05-09 07:47 -35.78979 150.27837 38310 ft 420 kts 195°
2026-05-09 07:47 -35.84657 150.26115 38305 ft 420 kts 195°
2026-05-09 07:48 -35.90326 150.24394 38318 ft 419 kts 195°
2026-05-09 07:48 -35.95997 150.22669 38303 ft 419 kts 196°
2026-05-09 07:49 -36.01663 150.20944 38304 ft 419 kts 196°
2026-05-09 07:49 -36.07324 150.19217 38306 ft 419 kts 196°
2026-05-09 07:50 -36.12982 150.17489 38304 ft 419 kts 196°
2026-05-09 07:50 -36.18618 150.15766 38304 ft 420 kts 196°
2026-05-09 07:51 -36.24297 150.14026 38318 ft 420 kts 196°
2026-05-09 07:51 -36.29976 150.12283 38312 ft 420 kts 196°
2026-05-09 07:52 -36.35660 150.10537 38303 ft 421 kts 196°
2026-05-09 07:52 -36.41308 150.08799 38306 ft 421 kts 196°
2026-05-09 07:53 -36.46998 150.07045 38301 ft 421 kts 196°
2026-05-09 07:53 -36.52688 150.05289 38309 ft 421 kts 196°
2026-05-09 07:54 -36.58373 150.03531 38305 ft 421 kts 196°
2026-05-09 07:54 -36.64060 150.01771 38303 ft 421 kts 196°
2026-05-09 07:55 -36.69738 150.00010 38309 ft 420 kts 196°
2026-05-09 07:55 -36.75415 149.98247 38307 ft 420 kts 196°
2026-05-09 07:56 -36.81086 149.96483 38299 ft 420 kts 196°
2026-05-09 07:56 -36.86751 149.94719 38306 ft 419 kts 196°
2026-05-09 07:57 -36.92413 149.92953 38309 ft 419 kts 196°
2026-05-09 07:57 -36.98075 149.91184 38310 ft 419 kts 196°
2026-05-09 07:58 -37.03695 149.89425 38311 ft 419 kts 196°
2026-05-09 07:58 -37.09351 149.87653 38310 ft 419 kts 196°
2026-05-09 07:59 -37.15004 149.85879 38315 ft 419 kts 196°
2026-05-09 07:59 -37.20661 149.84101 38315 ft 419 kts 196°
2026-05-09 08:00 -37.26309 149.82323 38330 ft 419 kts 196°
2026-05-09 08:00 -37.31972 149.80538 38320 ft 419 kts 196°
2026-05-09 08:01 -37.37619 149.78755 38321 ft 418 kts 196°
2026-05-09 08:01 -37.43230 149.76982 38317 ft 418 kts 196°
2026-05-09 08:02 -37.48879 149.75194 38326 ft 418 kts 196°
2026-05-09 08:02 -37.54516 149.73409 38313 ft 417 kts 196°
2026-05-09 08:03 -37.60144 149.71619 38317 ft 417 kts 197°
2026-05-09 08:03 -37.65718 149.69647 38328 ft 416 kts 198°
2026-05-09 08:04 -37.70330 149.67927 38310 ft 415 kts 198°
2026-05-09 08:04 -37.76801 149.65527 38313 ft 414 kts 198°
2026-05-09 08:05 -37.81396 149.63839 38316 ft 414 kts 198°
2026-05-09 08:05 -37.86924 149.61815 38311 ft 413 kts 198°
2026-05-09 08:06 -37.92441 149.59794 38301 ft 412 kts 198°
2026-05-09 08:06 -37.97950 149.57773 38310 ft 412 kts 198°
2026-05-09 08:07 -38.03453 149.55751 38321 ft 411 kts 198°
2026-05-09 08:07 -38.08953 149.53726 38307 ft 411 kts 198°
2026-05-09 08:08 -38.14450 149.51700 38305 ft 411 kts 198°
2026-05-09 08:08 -38.19940 149.49673 38309 ft 411 kts 198°
2026-05-09 08:09 -38.25438 149.47640 38311 ft 411 kts 198°
2026-05-09 08:09 -38.30938 149.45602 38312 ft 412 kts 198°
2026-05-09 08:10 -38.36446 149.43559 38306 ft 412 kts 198°
2026-05-09 08:10 -38.41956 149.41512 38308 ft 413 kts 198°
2026-05-09 08:11 -38.47476 149.39457 38304 ft 413 kts 198°
2026-05-09 08:11 -38.52959 149.37413 38304 ft 413 kts 198°
2026-05-09 08:12 -38.61252 149.34316 38296 ft 414 kts 198°
2026-05-09 08:12 -38.66783 149.32246 38296 ft 414 kts 198°
2026-05-09 08:13 -38.72316 149.30172 38298 ft 414 kts 198°
2026-05-09 08:13 -38.77840 149.28098 38300 ft 414 kts 198°
2026-05-09 08:14 -38.83367 149.26020 38294 ft 414 kts 198°
2026-05-09 08:14 -38.88893 149.23938 38293 ft 414 kts 198°
2026-05-09 08:15 -38.94379 149.21869 38299 ft 413 kts 197°
2026-05-09 08:15 -38.99900 149.19782 38292 ft 413 kts 197°
2026-05-09 08:16 -39.05417 149.17694 38291 ft 413 kts 198°
2026-05-09 08:16 -39.10902 149.15615 38298 ft 413 kts 197°
2026-05-09 08:17 -39.16410 149.13523 38291 ft 413 kts 197°
2026-05-09 08:17 -39.21916 149.11429 38286 ft 412 kts 198°
2026-05-09 08:18 -39.27423 149.09331 38285 ft 412 kts 197°
2026-05-09 08:18 -39.32919 149.07234 38286 ft 412 kts 198°
2026-05-09 08:19 -39.38406 149.05137 38286 ft 411 kts 198°
2026-05-09 08:19 -39.43890 149.03038 38271 ft 411 kts 197°
2026-05-09 08:20 -39.49364 149.00938 38289 ft 410 kts 197°
2026-05-09 08:20 -39.54831 148.98839 38281 ft 410 kts 197°
2026-05-09 08:21 -39.60300 148.96735 38282 ft 409 kts 197°
2026-05-09 08:21 -39.65762 148.94630 38290 ft 409 kts 197°
2026-05-09 08:22 -39.71180 148.92539 38282 ft 409 kts 197°
2026-05-09 08:22 -39.76628 148.90434 38277 ft 408 kts 197°
2026-05-09 08:23 -39.82066 148.88328 38290 ft 408 kts 198°
2026-05-09 08:23 -39.87510 148.86218 38276 ft 407 kts 198°
2026-05-09 08:24 -39.92947 148.84107 38277 ft 407 kts 198°
2026-05-09 08:24 -39.98380 148.81996 38281 ft 407 kts 198°
2026-05-09 08:25 -40.03768 148.79896 38275 ft 406 kts 198°
2026-05-09 08:25 -40.09187 148.77775 38274 ft 406 kts 198°
2026-05-09 08:26 -40.14591 148.75653 38270 ft 406 kts 198°
2026-05-09 08:26 -40.19996 148.73530 38276 ft 405 kts 198°
2026-05-09 08:27 -40.25399 148.71407 38273 ft 405 kts 198°
2026-05-09 08:27 -40.30755 148.69300 38274 ft 404 kts 198°
2026-05-09 08:28 -40.36143 148.67176 38272 ft 404 kts 198°
2026-05-09 08:28 -40.41525 148.65052 38272 ft 404 kts 198°
2026-05-09 08:29 -40.46903 148.62925 38272 ft 404 kts 198°
2026-05-09 08:29 -40.52280 148.60795 38274 ft 403 kts 198°
2026-05-09 08:30 -40.57657 148.58662 38271 ft 403 kts 198°
2026-05-09 08:30 -40.63023 148.56529 38271 ft 402 kts 198°
2026-05-09 08:31 -40.68380 148.54397 38283 ft 401 kts 197°
2026-05-09 08:31 -40.73726 148.52265 38282 ft 401 kts 198°
2026-05-09 08:32 -40.79027 148.50148 38269 ft 400 kts 198°
2026-05-09 08:33 -40.86992 148.46961 38269 ft 398 kts 198°
2026-05-09 08:33 -40.92279 148.44841 38274 ft 397 kts 198°
2026-05-09 08:34 -40.97511 148.42739 38272 ft 396 kts 198°
2026-05-09 08:34 -41.02829 148.40600 38264 ft 395 kts 198°
2026-05-09 08:35 -41.08021 148.38507 38278 ft 395 kts 198°
2026-05-09 08:35 -41.13288 148.36381 38278 ft 396 kts 198°
2026-05-09 08:36 -41.18557 148.34252 38274 ft 396 kts 198°
2026-05-09 08:36 -41.23844 148.32112 38276 ft 398 kts 198°
2026-05-09 08:37 -41.29126 148.29972 38283 ft 400 kts 198°
2026-05-09 08:37 -41.34451 148.27782 38080 ft 399 kts 200°
2026-05-09 08:37 -41.37056 148.26569 37603 ft 393 kts 201°
2026-05-09 08:38 -41.39619 148.25307 37024 ft 391 kts 201°
2026-05-09 08:38 -41.42169 148.24029 36376 ft 392 kts 201°
2026-05-09 08:38 -41.44739 148.22740 35685 ft 399 kts 201°
2026-05-09 08:38 -41.47367 148.21431 34935 ft 407 kts 201°
2026-05-09 08:39 -41.50024 148.20116 34390 ft 404 kts 200°
2026-05-09 08:39 -41.52650 148.18821 33767 ft 401 kts 200°
2026-05-09 08:39 -41.55254 148.17540 33193 ft 396 kts 200°
2026-05-09 08:39 -41.57835 148.16272 32634 ft 392 kts 200°
2026-05-09 08:40 -41.60381 148.15020 32111 ft 388 kts 200°
2026-05-09 08:40 -41.62902 148.13781 31589 ft 384 kts 200°
2026-05-09 08:40 -41.65365 148.12569 31095 ft 380 kts 199°
2026-05-09 08:40 -41.67835 148.11352 30595 ft 377 kts 199°
2026-05-09 08:41 -41.70292 148.10141 30049 ft 374 kts 199°
2026-05-09 08:41 -41.72721 148.08943 29492 ft 370 kts 199°
2026-05-09 08:41 -41.75126 148.07756 28969 ft 367 kts 199°
2026-05-09 08:41 -41.77515 148.06575 28427 ft 366 kts 199°
2026-05-09 08:42 -41.79902 148.05396 27879 ft 365 kts 199°
2026-05-09 08:42 -41.82284 148.04220 27384 ft 364 kts 200°
2026-05-09 08:42 -41.84665 148.03039 26840 ft 364 kts 200°
2026-05-09 08:42 -41.87027 148.01866 26314 ft 360 kts 200°
2026-05-09 08:43 -41.89364 148.00706 25800 ft 356 kts 200°
2026-05-09 08:43 -41.91677 147.99558 25280 ft 353 kts 200°
2026-05-09 08:43 -41.93969 147.98419 24776 ft 350 kts 200°
2026-05-09 08:43 -41.96219 147.97300 24270 ft 348 kts 200°
2026-05-09 08:44 -41.98481 147.96175 23734 ft 346 kts 200°
2026-05-09 08:44 -42.00733 147.95053 23149 ft 344 kts 200°
2026-05-09 08:44 -42.02968 147.93939 22617 ft 340 kts 201°
2026-05-09 08:44 -42.05177 147.92838 22106 ft 337 kts 200°
2026-05-09 08:45 -42.07366 147.91746 21598 ft 333 kts 201°
2026-05-09 08:45 -42.09532 147.90665 21100 ft 330 kts 201°
2026-05-09 08:45 -42.11672 147.89595 20608 ft 327 kts 201°
2026-05-09 08:45 -42.13793 147.88535 20113 ft 324 kts 201°
2026-05-09 08:46 -42.15911 147.87475 19635 ft 324 kts 201°
2026-05-09 08:46 -42.18031 147.86414 19150 ft 325 kts 201°
2026-05-09 08:46 -42.20146 147.85354 18651 ft 323 kts 201°
2026-05-09 08:46 -42.22220 147.84315 18113 ft 321 kts 201°
2026-05-09 08:47 -42.24304 147.83270 17569 ft 319 kts 201°
2026-05-09 08:47 -42.26374 147.82232 17065 ft 316 kts 201°
2026-05-09 08:47 -42.28425 147.81202 16555 ft 313 kts 202°
2026-05-09 08:47 -42.30455 147.80182 16079 ft 310 kts 202°
2026-05-09 08:48 -42.32468 147.79167 15589 ft 308 kts 202°
2026-05-09 08:48 -42.34475 147.78167 15097 ft 306 kts 200°
2026-05-09 08:48 -42.36585 147.77588 14365 ft 314 kts 189°
2026-05-09 08:48 -42.38769 147.77306 13746 ft 316 kts 187°
2026-05-09 08:49 -42.40930 147.77072 13444 ft 306 kts 187°
2026-05-09 08:49 -42.43009 147.76847 13313 ft 291 kts 187°
2026-05-09 08:49 -42.44971 147.76624 13280 ft 275 kts 187°
2026-05-09 08:49 -42.46842 147.76401 13087 ft 266 kts 188°
2026-05-09 08:50 -42.48060 147.76251 12872 ft 264 kts 188°
2026-05-09 08:50 -42.49889 147.76021 12390 ft 266 kts 188°
2026-05-09 08:50 -42.51788 147.75776 11482 ft 283 kts 188°
2026-05-09 08:50 -42.53789 147.75515 10777 ft 292 kts 188°
2026-05-09 08:51 -42.56394 147.75182 10522 ft 271 kts 188°
2026-05-09 08:51 -42.58239 147.74947 10241 ft 263 kts 188°
2026-05-09 08:51 -42.59463 147.74789 10028 ft 260 kts 188°
2026-05-09 08:51 -42.61228 147.74560 9691 ft 256 kts 188°
2026-05-09 08:52 -42.63589 147.74253 9191 ft 254 kts 188°
2026-05-09 08:52 -42.64753 147.74102 8940 ft 253 kts 188°
2026-05-09 08:52 -42.66497 147.73875 8575 ft 251 kts 188°
2026-05-09 08:52 -42.68236 147.73649 8199 ft 250 kts 188°
2026-05-09 08:53 -42.69956 147.73424 7857 ft 247 kts 188°
2026-05-09 08:53 -42.71666 147.73199 7491 ft 246 kts 188°
2026-05-09 08:53 -42.73360 147.72980 7198 ft 242 kts 187°
2026-05-09 08:53 -42.75011 147.73192 7046 ft 238 kts 170°
2026-05-09 08:54 -42.76595 147.73776 6786 ft 234 kts 169°
2026-05-09 08:54 -42.78166 147.74358 6436 ft 234 kts 169°
2026-05-09 08:54 -42.79735 147.74930 6109 ft 232 kts 169°
2026-05-09 08:54 -42.81283 147.75493 5792 ft 229 kts 170°
2026-05-09 08:55 -42.82828 147.76048 5456 ft 229 kts 170°
2026-05-09 08:55 -42.84362 147.76598 5147 ft 227 kts 171°
2026-05-09 08:55 -42.85875 147.76982 4835 ft 220 kts 187°
2026-05-09 08:55 -42.87335 147.76500 4578 ft 213 kts 205°
2026-05-09 08:56 -42.88639 147.75655 4448 ft 202 kts 209°
2026-05-09 08:56 -42.89863 147.74803 4359 ft 193 kts 208°
2026-05-09 08:56 -42.91036 147.73999 4259 ft 184 kts 209°
2026-05-09 08:56 -42.92095 147.73076 4055 ft 178 kts 229°
2026-05-09 08:57 -42.92684 147.71633 3803 ft 174 kts 250°
2026-05-09 08:57 -42.92789 147.69995 3545 ft 172 kts 266°
2026-05-09 08:57 -42.92791 147.68385 3277 ft 167 kts 265°
2026-05-09 08:57 -42.92795 147.66837 3003 ft 163 kts 265°
2026-05-09 08:58 -42.92797 147.65313 2738 ft 159 kts 266°
2026-05-09 08:58 -42.92716 147.63829 2459 ft 159 kts 287°
2026-05-09 08:58 -42.92016 147.62674 2252 ft 157 kts 309°
2026-05-09 08:58 -42.91267 147.61648 1984 ft 148 kts 307°
2026-05-09 08:59 -42.90571 147.60689 1800 ft 136 kts 308°
2026-05-09 08:59 -42.89929 147.59809 1562 ft 127 kts 308°
2026-05-09 08:59 -42.89308 147.58952 1394 ft 129 kts 309°
2026-05-09 08:59 -42.88674 147.58079 1365 ft 128 kts 309°
2026-05-09 09:00 -42.88036 147.57176 1053 ft 135 kts 309°
2026-05-09 09:00 -42.87385 147.56260 767 ft 131 kts 315°
2026-05-09 09:00 -42.86745 147.55455 576 ft 121 kts 313°
2026-05-09 09:00 -42.86167 147.54654 418 ft 116 kts 311°
2026-05-09 09:01 -42.85592 147.53850 366 ft 120 kts 311°
2026-05-09 09:01 -42.84990 147.53056 201 ft 119 kts 311°
2026-05-09 09:01 -42.84401 147.52261 40 ft 118 kts 309°
2026-05-09 09:01 -42.83872 147.51518 21 ft 92 kts 316°
2026-05-09 09:02 -42.83522 147.51049 21 ft 54 kts 315°
2026-05-09 09:02 -42.83338 147.50792 22 ft 16 kts 306°
2026-05-09 09:02 -42.83325 147.50647 21 ft 13 kts 246°
2026-05-09 09:02 -42.83353 147.50601 21 ft 3 kts 224°
2026-05-09 09:03 -42.83363 147.50588 23 ft 0 kts 224°
2026-05-09 09:03 -42.83377 147.50570 22 ft 13 kts 219°
2026-05-09 09:03 -42.83461 147.50602 22 ft 14 kts 136°
2026-05-09 09:04 -42.83538 147.50693 21 ft 16 kts 158°
2026-05-09 09:04 -42.83630 147.50665 21 ft 13 kts 174°
2026-05-09 09:04 -42.83671 147.50640 21 ft 2 kts 222°
2026-05-09 09:04 -42.83681 147.50626 22 ft 1 kts 224°